Content
SEND FEEDBACK

Daily
Averages
Monthly
Summary
United States of America

NEW YORK - CENTRAL PARK, NEW YORK


Home > North America > United States > New York
Elevation: 14 feet     Latitude: 40 47N     Longitude: 073 58W

WEATHER
 
SELECT A DAY
Number of Records: 148,014;   Date Range: 11/1/95 - 7/22/14
 
SHARE

PRINT THIS DATA

[ ← Previous Day ]
WEATHER ALMANAC - JANUARY 16, 2013
[ Next Day → ]
[ °C ]   °F
Weather ElementAverageHighLow
Temperature34 °F37 °F (10:51 pm)32 °F (2:34 am)
Dewpoint31.9 °F33.1 °F (4:51 pm)30 °F (1:51 am)
Humidity92 %96 % (3:21 am)82 % (11:51 pm)
Barometer29.98 in30.19 in (2:34 am)29.84 in (1:36 pm)
Wind Speed4.7 mph13.8 mph (1:51 am)
Wind Gust17.3 mph (7:51 pm)
Weather ElementAverage
Visibility4.8 mi
Wind DirectionENE (82.5 °)

Weather ElementTotal
Precipitation0.82 in
Heating Degree Days30.5 (Base 65)
Averaged from 36 records on January 16, 2013
WEATHER CONDITIONS BREAKOUT
WIND DIRECTION BREAKOUT
WEATHER BY HOUR - JANUARY 16, 2013
[ °C ]   °F
Local TimeTemperatureDewpointHumidityBarometerVisibilityWind DirectionWind SpeedGust SpeedPrecipitationEventsConditions
1:51 AM33.1 °F30.0 °F89 %30.18 in6.0 miENE (60°)13.8 mph0.06 inRainLight Rain
2:34 AM32.0 °F30.0 °F92 %30.19 in5.0 miNE (50°)6.9 mph0.04 inOvercast
2:51 AM32.0 °F30.0 °F92 %30.17 in5.0 miNE (50°)5.8 mph0.06 inOvercast
3:21 AM32.0 °F30.9 °F96 %30.16 in4.0 miVariable6.9 mph0.05 inRainRain
3:51 AM32.0 °F30.9 °F96 %30.12 in3.0 miNE (50°)5.8 mph16.1 mph0.10 inOvercast
4:51 AM32.0 °F30.9 °F96 %30.12 in4.0 miNE (50°)4.6 mph0.16 inOvercast
5:51 AM32.0 °F30.9 °F96 %30.08 in5.0 miVariable5.8 mph0.11 inOvercast
6:51 AM33.1 °F30.9 °F92 %30.06 in4.0 miVariable4.6 mph0.07 inRainLight Rain
7:51 AM33.1 °F32.0 °F96 %30.04 in3.0 miNE (50°)6.9 mph0.03 inOvercast
8:08 AM34.0 °F32.0 °F92 %30.06 in2.0 miNE (50°)3.5 mph0.02 inRainLight Rain
8:34 AM34.0 °F32.0 °F92 %30.05 in5.0 miNNE (20°)3.5 mph0.03 inOvercast
8:51 AM34.0 °F32.0 °F92 %30.01 in5.0 miENE (60°)4.6 mph0.03 inOvercast
9:51 AM34.0 °F32.0 °F92 %29.97 in3.0 miNorth (10°)4.6 mph0.00 inOvercast
10:43 AM34.0 °F32.0 °F92 %30.00 in2.5 miCalm0.01 inOvercast
10:51 AM34.0 °F32.0 °F92 %29.98 in2.5 miCalm0.01 inOvercast
11:27 AM33.1 °F30.9 °F92 %29.97 in2.5 miNW (310°)5.8 mph0.01 inOvercast
11:39 AM32.0 °F30.9 °F96 %29.97 in3.0 miVariable4.6 mph0.01 inOvercast
11:51 AM32.0 °F30.9 °F96 %29.94 in3.0 miVariable3.5 mph0.02 inOvercast
12:51 PM33.1 °F32.0 °F96 %29.90 in3.0 miCalm0.00 inOvercast
1:36 PM34.0 °F32.0 °F92 %29.84 in2.5 miVariable3.5 mph0.00 inOvercast
1:51 PM34.0 °F32.0 °F92 %29.85 in3.0 miCalm0.00 inOvercast
2:44 PM33.1 °F32.0 °F96 %29.92 in2.0 miWNW (300°)3.5 mphOvercast
2:51 PM33.1 °F32.0 °F96 %29.88 in2.0 miCalmOvercast
3:14 PM34.0 °F32.0 °F92 %29.91 in3.0 miVariable4.6 mphOvercast
3:51 PM34.0 °F32.0 °F92 %29.90 in6.0 miWNW (300°)3.5 mphOvercast
4:51 PM35.1 °F33.1 °F92 %29.91 in6.0 miWNW (290°)4.6 mphOvercast
5:51 PM35.1 °F33.1 °F92 %29.91 in4.0 miVariable4.6 mphOvercast
6:21 PM36.0 °F33.1 °F89 %29.92 in7.0 miVariable4.6 mphOvercast
6:51 PM36.0 °F33.1 °F89 %29.89 in9.0 miVariable3.5 mphOvercast
7:36 PM36.0 °F33.1 °F89 %29.93 in8.0 miWSW (250°)9.2 mph16.1 mphOvercast
7:51 PM36.0 °F33.1 °F89 %29.91 in8.0 miWest (280°)8.1 mph17.3 mphOvercast
8:51 PM36.0 °F33.1 °F89 %29.93 in8.0 miWSW (250°)8.1 mphOvercast
9:24 PM36.0 °F33.1 °F89 %29.93 in8.0 miWest (280°)4.6 mphScattered Clouds
9:51 PM36.0 °F33.1 °F89 %29.91 in8.0 miVariable4.6 mphClear
10:51 PM37.0 °F33.1 °F86 %29.91 in9.0 miWest (260°)6.9 mphClear
11:51 PM37.0 °F32.0 °F82 %29.91 in9.0 miVariable5.8 mphClear
Hourly data recorded from KNYC, located miles away from New York - Central Park, New York







STORIES FROM OUR PARTNERS